When you browse on this site, cookies collect data to enhance your experience and personalize the content and advertising you see.
Visit our Privacy Policy to learn more. By continuing to use the site, you agree to this use of cookies and data.
  • In United Kingdom
  • List of Countries
  • For 7 days
  • Water Temperature
  • Weather Map
  • Weather Widgets
  • user-avatar
    Login

    Hourly Weather Brighton

    Today, 22 August, Thursday

    Time Temperature Precipitation Wind Pressure Humidity
    00:00 +13°C° 0 mm 3 mps 765 mmHg 83%
    01:00 +13°C° 0 mm 3 mps 764 mmHg 84%
    02:00 +12°C° 0 mm 3 mps 764 mmHg 85%
    03:00 +12°C° 0 mm 3 mps 763 mmHg 86%
    04:00 +12°C° 0 mm 3 mps 764 mmHg 85%
    05:00 +12°C° 0 mm 3 mps 764 mmHg 85%
    06:00 +13°C° 0 mm 3 mps 764 mmHg 84%
    07:00 +14°C° 0 mm 3 mps 764 mmHg 76%
    08:00 +17°C° 0 mm 3 mps 764 mmHg 69%
    09:00 +19°C° 0 mm 4 mps 764 mmHg 61%
    10:00 +20°C° 0 mm 4 mps 764 mmHg 59%
    11:00 +20°C° 0 mm 4 mps 764 mmHg 57%
    12:00 +21°C° 0 mm 5 mps 764 mmHg 55%
    13:00 +21°C° 0 mm 5 mps 764 mmHg 55%
    14:00 +21°C° 0 mm 5 mps 764 mmHg 56%
    15:00 +21°C° 0 mm 5 mps 764 mmHg 56%
    16:00 +20°C° 0 mm 4 mps 764 mmHg 60%
    17:00 +20°C° 0 mm 4 mps 764 mmHg 63%
    18:00 +19°C° 0 mm 3 mps 763 mmHg 67%
    19:00 +18°C° 0 mm 3 mps 764 mmHg 71%
    20:00 +16°C° 0 mm 3 mps 764 mmHg 76%
    21:00 +15°C° 0 mm 2 mps 764 mmHg 80%
    22:00 +15°C° 0 mm 2 mps 764 mmHg 82%
    23:00 +15°C° 0 mm 2 mps 764 mmHg 84%

    Tomorrow, 23 August, Friday

    Time Temperature Precipitation Wind Pressure Humidity
    00:00 +14°C° 0 mm 1 mps 764 mmHg 85%
    01:00 +14°C° 0 mm 1 mps 764 mmHg 86%
    02:00 +14°C° 0 mm 1 mps 764 mmHg 87%
    03:00 +13°C° 0 mm 0 mps 764 mmHg 88%
    04:00 +13°C° 0 mm 0 mps 764 mmHg 88%
    05:00 +14°C° 0 mm 0 mps 764 mmHg 87%
    06:00 +14°C° 0 mm 0 mps 764 mmHg 87%
    07:00 +16°C° 0 mm 0 mps 764 mmHg 79%
    08:00 +19°C° 0 mm 1 mps 764 mmHg 71%
    09:00 +21°C° 0 mm 1 mps 764 mmHg 64%
    10:00 +22°C° 0 mm 1 mps 764 mmHg 58%
    11:00 +23°C° 0 mm 2 mps 764 mmHg 52%
    12:00 +23°C° 0 mm 2 mps 763 mmHg 47%
    13:00 +23°C° 0 mm 2 mps 763 mmHg 46%
    14:00 +24°C° 0 mm 2 mps 763 mmHg 45%
    15:00 +24°C° 0 mm 2 mps 763 mmHg 44%
    16:00 +23°C° 0 mm 1 mps 762 mmHg 48%
    17:00 +22°C° 0 mm 1 mps 762 mmHg 52%
    18:00 +21°C° 0 mm 1 mps 761 mmHg 57%
    19:00 +20°C° 0 mm 1 mps 762 mmHg 57%
    20:00 +17°C° 0 mm 2 mps 762 mmHg 57%
    21:00 +16°C° 0 mm 2 mps 762 mmHg 57%
    22:00 +16°C° 0 mm 2 mps 762 mmHg 59%
    23:00 +14°C° 0 mm 3 mps 761 mmHg 60%

    Day after tomorrow, 24 August, Saturday

    Time Temperature Precipitation Wind Pressure Humidity
    00:00 +14°C° 0 mm 3 mps 761 mmHg 62%
    01:00 +14°C° 0 mm 3 mps 761 mmHg 66%
    02:00 +14°C° 0 mm 3 mps 760 mmHg 70%
    03:00 +14°C° 0 mm 3 mps 760 mmHg 74%
    04:00 +14°C° 0 mm 3 mps 760 mmHg 75%
    05:00 +16°C° 0 mm 3 mps 760 mmHg 77%
    06:00 +16°C° 0 mm 3 mps 759 mmHg 78%
    07:00 +18°C° 0 mm 3 mps 760 mmHg 72%
    08:00 +20°C° 0 mm 3 mps 760 mmHg 67%
    09:00 +22°C° 0 mm 3 mps 760 mmHg 61%
    10:00 +24°C° 0 mm 3 mps 759 mmHg 58%
    11:00 +25°C° 0 mm 3 mps 759 mmHg 55%
    12:00 +26°C° 0 mm 4 mps 759 mmHg 52%
    13:00 +26°C° 0 mm 3 mps 758 mmHg 51%
    14:00 +26°C° 0 mm 3 mps 758 mmHg 51%
    15:00 +26°C° 0 mm 3 mps 758 mmHg 50%
    16:00 +25°C° 0 mm 3 mps 758 mmHg 55%
    17:00 +24°C° 0 mm 3 mps 757 mmHg 60%
    18:00 +23°C° 0 mm 2 mps 757 mmHg 64%
    19:00 +21°C° 0 mm 3 mps 757 mmHg 66%
    20:00 +20°C° 0 mm 3 mps 757 mmHg 68%
    21:00 +19°C° 0 mm 4 mps 757 mmHg 69%
    22:00 +19°C° 0 mm 3 mps 757 mmHg 69%
    23:00 +19°C° 0 mm 3 mps 757 mmHg 68%

    25 August, Sunday

    Time Temperature Precipitation Wind Pressure Humidity
    00:00 +19°C° 0 mm 3 mps 757 mmHg 68%
    01:00 +19°C° 0 mm 3 mps 756 mmHg 69%
    02:00 +18°C° 0 mm 3 mps 756 mmHg 70%
    03:00 +18°C° 0 mm 3 mps 756 mmHg 70%
    04:00 +19°C° 0 mm 3 mps 756 mmHg 71%
    05:00 +19°C° 0 mm 3 mps 756 mmHg 71%
    06:00 +19°C° 0 mm 3 mps 756 mmHg 71%
    07:00 +21°C° 0 mm 3 mps 756 mmHg 66%
    08:00 +24°C° 0 mm 3 mps 756 mmHg 60%
    09:00 +26°C° 0 mm 3 mps 757 mmHg 54%
    10:00 +26°C° 0 mm 3 mps 757 mmHg 52%
    11:00 +27°C° 0 mm 3 mps 757 mmHg 50%
    12:00 +27°C° 0 mm 3 mps 757 mmHg 48%
    13:00 +27°C° 0 mm 3 mps 757 mmHg 49%
    14:00 +27°C° 0 mm 3 mps 757 mmHg 50%
    15:00 +27°C° 0 mm 3 mps 757 mmHg 50%
    16:00 +26°C° 0 mm 3 mps 757 mmHg 57%
    17:00 +24°C° 0 mm 3 mps 758 mmHg 64%
    18:00 +22°C° 0 mm 3 mps 758 mmHg 71%
    19:00 +20°C° 0 mm 2 mps 758 mmHg 75%
    20:00 +19°C° 0 mm 2 mps 758 mmHg 78%
    21:00 +19°C° 0 mm 1 mps 759 mmHg 82%
    22:00 +18°C° 0 mm 1 mps 759 mmHg 82%
    23:00 +18°C° 0 mm 1 mps 759 mmHg 82%

    26 August, Monday

    Time Temperature Precipitation Wind Pressure Humidity
    00:00 +18°C° 0 mm 1 mps 759 mmHg 82%
    01:00 +18°C° 0 mm 1 mps 759 mmHg 83%
    02:00 +18°C° 0 mm 1 mps 759 mmHg 84%
    03:00 +18°C° 0 mm 1 mps 759 mmHg 85%
    04:00 +18°C° 0 mm 1 mps 759 mmHg 85%
    05:00 +18°C° 0 mm 1 mps 759 mmHg 85%
    06:00 +19°C° 0 mm 1 mps 760 mmHg 84%
    07:00 +21°C° 0 mm 1 mps 760 mmHg 78%
    08:00 +23°C° 0 mm 2 mps 760 mmHg 71%
    09:00 +25°C° 0 mm 2 mps 760 mmHg 64%
    10:00 +26°C° 0 mm 2 mps 760 mmHg 59%
    11:00 +27°C° 0 mm 2 mps 760 mmHg 53%
    12:00 +28°C° 0 mm 2 mps 760 mmHg 48%
    13:00 +28°C° 0 mm 2 mps 760 mmHg 47%
    14:00 +29°C° 0 mm 3 mps 760 mmHg 46%
    15:00 +29°C° 0 mm 3 mps 759 mmHg 45%
    16:00 +27°C° 0 mm 3 mps 759 mmHg 52%
    17:00 +26°C° 0 mm 3 mps 759 mmHg 58%
    18:00 +25°C° 0 mm 3 mps 759 mmHg 64%
    19:00 +23°C° 0 mm 2 mps 759 mmHg 68%
    20:00 +21°C° 0 mm 2 mps 760 mmHg 71%
    21:00 +20°C° 0 mm 2 mps 760 mmHg 74%
    22:00 +20°C° 0 mm 1 mps 760 mmHg 76%
    23:00 +20°C° 0 mm 1 mps 759 mmHg 78%

    27 August, Tuesday

    Time Temperature Precipitation Wind Pressure Humidity
    00:00 +20°C° 0 mm 1 mps 759 mmHg 80%
    01:00 +19°C° 0 mm 1 mps 759 mmHg 81%
    02:00 +19°C° 0 mm 1 mps 758 mmHg 82%
    03:00 +17°C° 0 mm 0 mps 758 mmHg 82%
    04:00 +17°C° 0 mm 0 mps 758 mmHg 81%
    05:00 +17°C° 0 mm 0 mps 758 mmHg 81%
    06:00 +17°C° 0 mm 0 mps 758 mmHg 80%
    07:00 +19°C° 0 mm 0 mps 758 mmHg 72%
    08:00 +22°C° 0 mm 0 mps 758 mmHg 63%
    09:00 +24°C° 0 mm 0 mps 758 mmHg 55%
    10:00 +27°C° 0 mm 1 mps 758 mmHg 51%
    11:00 +28°C° 0 mm 1 mps 757 mmHg 46%
    12:00 +29°C° 0 mm 1 mps 757 mmHg 41%
    13:00 +29°C° 0 mm 1 mps 757 mmHg 41%
    14:00 +29°C° 0 mm 2 mps 756 mmHg 41%
    15:00 +30°C° 0 mm 2 mps 756 mmHg 40%
    16:00 +28°C° 0 mm 2 mps 756 mmHg 46%
    17:00 +27°C° 0 mm 2 mps 756 mmHg 51%
    18:00 +25°C° 0 mm 2 mps 756 mmHg 56%
    19:00 +24°C° 0 mm 2 mps 756 mmHg 59%
    20:00 +23°C° 0 mm 2 mps 756 mmHg 61%
    21:00 +20°C° 0 mm 2 mps 756 mmHg 63%
    22:00 +21°C° 0 mm 1 mps 756 mmHg 65%
    23:00 +20°C° 0 mm 1 mps 755 mmHg 67%
    Show more